Southwest Coast: Past 24 Hour Conditions

 

Daniel's Harbour

06:30 PM NST 24 November 2014
This table is a summary of hourly weather conditions for the past 24 hours.
Date / Time
(NST)
Wind(knots) Conditions Visibility(km) Pressure(kPa) Air tempC) Relative humidity(%) Dew pointC) Wind Chill
24 November 2014
18:30 SE 4 N/A 15 102.1 0 54 -9 -3
17:30 SE 4 N/A 15 102.2 -1 53 -9 -3
16:30 SE 5 N/A 15 102.3 -1 57 -9 -4
15:30 S 7 N/A 15 102.4 -1 53 -9 -5
14:30 S 3 N/A 15 102.4 -1 53 -9 -3
13:30 SW 6 N/A 15 102.5 -1 51 -9 -4
12:30 WSW 7 N/A 15 102.4 -1 48 -10 -5
11:30 WSW 6 N/A 15 102.5 -1 49 -10 -4
10:30 W 5 N/A 15 102.5 -2 49 -11 -5
9:30 W 6 N/A 15 102.4 -2 51 -11 -6
8:30 W 8 N/A 15 102.4 -3 52 -12 -8
7:30 WNW 9 N/A 15 102.4 -3 55 -11 -9
6:30 W 10 gust 17 N/A 15 102.3 -3 55 -11 -9
5:30 WNW 15 gust 20 N/A 15 102.2 -3 54 -11 -11
4:30 WNW 11 gust 17 N/A 15 102.1 -4 54 -12 -10
3:30 WNW 11 gust 17 N/A 15 102.0 -4 55 -11 -10
2:30 WNW 14 N/A 15 101.9 -4 56 -11 -11
1:30 WNW 11 gust 18 N/A 15 101.8 -4 55 -12 -10
0:30 WNW 13 gust 19 N/A 15 101.7 -4 52 -12 -11
23 November 2014
23:30 WNW 14 gust 21 N/A 15 101.6 -4 48 -13 -11
22:30 WNW 15 N/A 15 101.5 -3 51 -12 -11
21:30 WNW 17 gust 26 N/A 15 101.5 -3 52 -11 -10
20:30 WNW 19 gust 27 N/A 15 101.4 -2 51 -11 -10
19:30 W 17 gust 27 N/A 15 101.3 -2 49 -11 -9
18:30 W 16 gust 26 N/A 15 101.1 -1 51 -10 -8
 
Map of Atlantic - Newfoundland marine weather areas Southwestern Grand Banks - 44138 Banquereau - 44139 Tail of the Bank - 44140 Nickerson Bank - 44251 Northeast Burgeo Bank - 44255 Blanc-Sablon Airport Cap Whittle Chevery Natashquan Airport Heath Point Miscou Island Grand Étang Ingonish Beach North Mountain St.Paul Island J.A. Douglas McCurdy Sydney Airport Charlottetown Airport East Point North Cape Argentia Bonavista Burgeo Cape Race Corner Brook Daniel's Harbour Englee Ferolle Point La Scie Port aux Basques Rocky Harbour Sagona Island St. Anthony Airport St. John's Int'l Airport St. Lawrence Stephenville Airport Twillingate Winterland Wreckhouse Cartwright Airport Mary's Harbour Grates Cove Pool's Island Marticot Island Long Pond Îles de la Madeleine Airport
Legend: buoyBuoy land stationLand Station